| time (UTC) | temp F | wind direction | speed MPH | gust MPH | rain 1hr in | rain 24hr in | rain mn in | humidity % | barometer mb |
| 20260510032731 | 67 | 352 | 1.0 | 8.0 | 0.00 | 0.00 | 0.00 | 44 | 1028.3 |
| 20260510031837 | 65 | 126 | 0.0 | 2.0 | 0.00 | 0.00 | 0.00 | 48 | 1028.4 |
| 20260510030030 | 63 | 25 | 1.0 | 4.0 | 0.00 | 0.00 | 0.00 | 49 | 1028.6 |
| 20260510024230 | 63 | 230 | 1.0 | 2.0 | 0.00 | 0.00 | 0.00 | 53 | 1028.9 |
| 20260510021530 | 63 | 15 | 1.0 | 4.0 | 0.00 | 0.00 | 0.00 | 49 | 1029.5 |
| 20260510020630 | 63 | 163 | 1.0 | 4.0 | 0.00 | 0.00 | 0.00 | 53 | 1029.5 |
| 20260510015731 | 63 | 36 | 1.0 | 3.0 | 0.00 | 0.00 | 0.00 | 53 | 1029.7 |
| 20260510014830 | 61 | 37 | 2.0 | 5.0 | 0.00 | 0.00 | 0.00 | 51 | 1029.7 |
| 20260510012131 | 61 | 78 | 1.0 | 4.0 | 0.00 | 0.00 | 0.00 | 52 | 1029.8 |
| 20260510011230 | 60 | 29 | 1.0 | 3.0 | 0.00 | 0.00 | 0.00 | 52 | 1029.8 |
| 20260510010330 | 60 | 60 | 1.0 | 4.0 | 0.00 | 0.00 | 0.00 | 52 | 1029.9 |
| 20260510005430 | 60 | 58 | 2.0 | 6.0 | 0.00 | 0.00 | 0.00 | 53 | 1029.9 |
| 20260510001830 | 60 | 111 | 4.0 | 9.0 | 0.00 | 0.00 | 0.00 | 56 | 1029.8 |
| 20260510000031 | 59 | 100 | 3.0 | 7.0 | 0.00 | 0.00 | 0.00 | 57 | 1029.9 |
| 20260509235130 | 58 | 93 | 2.0 | 5.0 | 0.00 | 0.00 | 0.00 | 59 | 1029.9 |
| 20260509234230 | 57 | 103 | 2.0 | 4.0 | 0.00 | 0.00 | 0.00 | 62 | 1030.0 |
| 20260509233330 | 56 | 90 | 1.0 | 4.0 | 0.00 | 0.00 | 0.00 | 65 | 1029.9 |
| 20260509232430 | 56 | 17 | 0.0 | 1.0 | 0.00 | 0.00 | 0.00 | 66 | 1029.9 |
| 20260509231530 | 54 | 0 | 0.0 | 0.0 | 0.00 | 0.00 | 0.00 | 66 | 1029.9 |
| 20260509230630 | 53 | 17 | 1.0 | 2.0 | 0.00 | 0.00 | 0.00 | 65 | 1029.8 |
| 20260509225730 | 53 | 17 | 1.0 | 2.0 | 0.00 | 0.00 | 0.00 | 65 | 1029.7 |
| 20260509224830 | 52 | 13 | 1.0 | 2.0 | 0.00 | 0.00 | 0.00 | 65 | 1029.8 |
| 20260509223930 | 52 | 350 | 1.0 | 2.0 | 0.00 | 0.00 | 0.00 | 65 | 1029.7 |
| 20260509222130 | 52 | 319 | 0.0 | 2.0 | 0.00 | 0.00 | 0.00 | 65 | 1029.4 |
| 20260509221230 | 52 | 355 | 0.0 | 1.0 | 0.00 | 0.00 | 0.00 | 65 | 1029.4 |
| 20260509220330 | 51 | 0 | 0.0 | 0.0 | 0.00 | 0.00 | 0.00 | 65 | 1029.2 |
| 20260509214530 | 51 | 30 | 1.0 | 2.0 | 0.00 | 0.00 | 0.00 | 65 | 1028.9 |
| 20260509212730 | 51 | 30 | 1.0 | 3.0 | 0.00 | 0.00 | 0.00 | 65 | 1028.9 |
| 20260509211830 | 51 | 30 | 1.0 | 2.0 | 0.00 | 0.00 | 0.00 | 65 | 1028.7 |
| 20260509210930 | 50 | 31 | 1.0 | 2.0 | 0.00 | 0.00 | 0.00 | 65 | 1028.7 |
| 20260509210029 | 50 | 77 | 1.0 | 3.0 | 0.00 | 0.00 | 0.00 | 65 | 1028.7 |
| 20260509205130 | 50 | 130 | 0.0 | 3.0 | 0.00 | 0.00 | 0.00 | 65 | 1028.6 |
| 20260509204230 | 50 | 129 | 0.0 | 2.0 | 0.00 | 0.00 | 0.00 | 65 | 1028.5 |
| 20260509203330 | 49 | 129 | 0.0 | 2.0 | 0.00 | 0.00 | 0.00 | 65 | 1028.4 |
| 20260509202429 | 49 | 0 | 0.0 | 0.0 | 0.00 | 0.00 | 0.00 | 65 | 1028.4 |
| 20260509201529 | 49 | 129 | 1.0 | 2.0 | 0.00 | 0.00 | 0.00 | 65 | 1028.2 |
| 20260509200629 | 49 | 130 | 1.0 | 2.0 | 0.00 | 0.00 | 0.00 | 65 | 1028.1 |
| 20260509195730 | 49 | 130 | 1.0 | 2.0 | 0.00 | 0.00 | 0.00 | 65 | 1028.1 |
| 20260509193930 | 49 | 129 | 1.0 | 2.0 | 0.00 | 0.00 | 0.00 | 64 | 1028.0 |
| 20260509193030 | 50 | 129 | 1.0 | 2.0 | 0.00 | 0.00 | 0.00 | 64 | 1027.9 |
| 20260509191230 | 50 | 129 | 0.0 | 2.0 | 0.00 | 0.00 | 0.00 | 64 | 1027.9 |
| 20260509190330 | 50 | 129 | 1.0 | 2.0 | 0.00 | 0.00 | 0.00 | 64 | 1027.8 |
| 20260509184529 | 50 | 129 | 1.0 | 2.0 | 0.00 | 0.00 | 0.00 | 64 | 1027.6 |
| 20260509181829 | 51 | 129 | 1.0 | 2.0 | 0.00 | 0.00 | 0.00 | 64 | 1027.6 |
| 20260509180929 | 51 | 129 | 0.0 | 2.0 | 0.00 | 0.00 | 0.00 | 64 | 1027.6 |
| 20260509175129 | 51 | 133 | 1.0 | 5.0 | 0.00 | 0.00 | 0.00 | 64 | 1027.5 |
| 20260509174229 | 51 | 129 | 1.0 | 2.0 | 0.00 | 0.00 | 0.00 | 64 | 1027.6 |
| 20260509173329 | 52 | 121 | 1.0 | 3.0 | 0.00 | 0.00 | 0.00 | 65 | 1027.6 |
| 20260509172430 | 52 | 127 | 1.0 | 3.0 | 0.00 | 0.00 | 0.00 | 64 | 1027.6 |
| 20260509171529 | 52 | 124 | 1.0 | 3.0 | 0.00 | 0.00 | 0.00 | 64 | 1027.6 |
| 20260509170630 | 52 | 131 | 2.0 | 4.0 | 0.00 | 0.00 | 0.00 | 64 | 1027.7 |
| 20260509164830 | 51 | 106 | 2.0 | 4.0 | 0.00 | 0.00 | 0.00 | 65 | 1027.7 |
| 20260509163029 | 51 | 111 | 2.0 | 6.0 | 0.00 | 0.00 | 0.00 | 64 | 1027.9 |
| 20260509162130 | 51 | 150 | 1.0 | 3.0 | 0.00 | 0.00 | 0.00 | 64 | 1027.9 |
| 20260509160330 | 51 | 150 | 0.0 | 2.0 | 0.00 | 0.00 | 0.00 | 64 | 1028.0 |
| 20260509155429 | 51 | 149 | 1.0 | 2.0 | 0.00 | 0.00 | 0.00 | 64 | 1028.1 |
| 20260509154529 | 51 | 150 | 0.0 | 1.0 | 0.00 | 0.00 | 0.00 | 64 | 1028.1 |
| 20260509153630 | 52 | 149 | 1.0 | 2.0 | 0.00 | 0.00 | 0.00 | 64 | 1028.0 |
| 20260509152729 | 52 | 150 | 1.0 | 2.0 | 0.00 | 0.00 | 0.00 | 64 | 1028.0 |
| 20260509151829 | 52 | 150 | 1.0 | 2.0 | 0.00 | 0.00 | 0.00 | 64 | 1028.1 |
| 20260509150029 | 51 | 151 | 1.0 | 3.0 | 0.00 | 0.00 | 0.00 | 64 | 1028.1 |
| 20260509145129 | 52 | 156 | 2.0 | 5.0 | 0.00 | 0.00 | 0.00 | 64 | 1028.1 |
| 20260509144229 | 51 | 188 | 1.0 | 2.0 | 0.00 | 0.00 | 0.00 | 64 | 1028.2 |
| 20260509143329 | 52 | 188 | 1.0 | 3.0 | 0.00 | 0.00 | 0.00 | 64 | 1028.2 |
| 20260509142429 | 52 | 131 | 2.0 | 3.0 | 0.00 | 0.00 | 0.00 | 64 | 1028.3 |
| 20260509141529 | 52 | 103 | 1.0 | 2.0 | 0.00 | 0.00 | 0.00 | 64 | 1028.4 |
| 20260509140629 | 52 | 103 | 1.0 | 2.0 | 0.00 | 0.00 | 0.00 | 64 | 1028.4 |
| 20260509135729 | 52 | 117 | 0.0 | 2.0 | 0.00 | 0.00 | 0.00 | 64 | 1028.3 |
| 20260509134829 | 52 | 134 | 1.0 | 2.0 | 0.00 | 0.00 | 0.00 | 63 | 1028.3 |
| 20260509133929 | 52 | 134 | 1.0 | 2.0 | 0.00 | 0.00 | 0.00 | 63 | 1028.3 |
| 20260509133029 | 53 | 134 | 1.0 | 2.0 | 0.00 | 0.00 | 0.00 | 63 | 1028.3 |
| 20260509132129 | 53 | 134 | 1.0 | 2.0 | 0.00 | 0.00 | 0.00 | 63 | 1028.3 |
| 20260509131228 | 53 | 134 | 1.0 | 2.0 | 0.00 | 0.00 | 0.00 | 64 | 1028.4 |
| 20260509130329 | 53 | 134 | 2.0 | 3.0 | 0.00 | 0.00 | 0.00 | 64 | 1028.5 |
| 20260509124529 | 53 | 130 | 2.0 | 3.0 | 0.00 | 0.00 | 0.00 | 63 | 1028.5 |
| 20260509123629 | 53 | 125 | 2.0 | 4.0 | 0.00 | 0.00 | 0.00 | 63 | 1028.5 |
| 20260509122728 | 53 | 142 | 3.0 | 6.0 | 0.00 | 0.00 | 0.00 | 63 | 1028.5 |
| 20260509121829 | 53 | 147 | 3.0 | 5.0 | 0.00 | 0.00 | 0.00 | 63 | 1028.5 |
| 20260509120929 | 54 | 148 | 3.0 | 5.0 | 0.00 | 0.00 | 0.00 | 63 | 1028.4 |
| 20260509120028 | 54 | 150 | 2.0 | 5.0 | 0.00 | 0.00 | 0.00 | 63 | 1028.3 |
| 20260509115129 | 54 | 152 | 2.0 | 4.0 | 0.00 | 0.00 | 0.00 | 63 | 1028.3 |
| 20260509113329 | 54 | 135 | 2.0 | 4.0 | 0.00 | 0.00 | 0.00 | 63 | 1028.2 |
| 20260509105729 | 55 | 134 | 2.0 | 3.0 | 0.00 | 0.00 | 0.00 | 63 | 1028.3 |
| 20260509104828 | 55 | 136 | 1.0 | 2.0 | 0.00 | 0.00 | 0.00 | 63 | 1028.3 |
| 20260509103929 | 56 | 121 | 0.0 | 2.0 | 0.00 | 0.00 | 0.00 | 63 | 1028.3 |
| 20260509103028 | 56 | 121 | 1.0 | 3.0 | 0.00 | 0.00 | 0.00 | 63 | 1028.2 |
| 20260509102128 | 56 | 134 | 3.0 | 5.0 | 0.00 | 0.00 | 0.00 | 63 | 1028.2 |
| 20260509101228 | 56 | 149 | 4.0 | 6.0 | 0.00 | 0.00 | 0.00 | 63 | 1028.3 |
| 20260509100328 | 56 | 152 | 4.0 | 8.0 | 0.00 | 0.00 | 0.00 | 63 | 1028.3 |
| 20260509095428 | 56 | 150 | 4.0 | 9.0 | 0.00 | 0.00 | 0.00 | 63 | 1028.3 |
| 20260509094528 | 57 | 184 | 1.0 | 4.0 | 0.00 | 0.00 | 0.00 | 63 | 1028.2 |
| 20260509093629 | 57 | 181 | 0.0 | 2.0 | 0.00 | 0.00 | 0.00 | 63 | 1028.2 |
| 20260509092728 | 57 | 0 | 0.0 | 0.0 | 0.00 | 0.00 | 0.00 | 63 | 1028.1 |
| 20260509091829 | 58 | 181 | 0.0 | 1.0 | 0.00 | 0.00 | 0.00 | 63 | 1028.1 |
| 20260509090928 | 58 | 181 | 0.0 | 1.0 | 0.00 | 0.00 | 0.00 | 63 | 1028.1 |
| 20260509084228 | 59 | 181 | 0.0 | 1.0 | 0.00 | 0.00 | 0.00 | 64 | 1028.0 |
| 20260509083328 | 59 | 181 | 1.0 | 2.0 | 0.00 | 0.00 | 0.00 | 64 | 1027.9 |
| 20260509082429 | 60 | 189 | 2.0 | 3.0 | 0.00 | 0.00 | 0.00 | 64 | 1027.7 |
| 20260509081528 | 60 | 197 | 2.0 | 3.0 | 0.00 | 0.00 | 0.00 | 64 | 1027.6 |
| 20260509080628 | 60 | 208 | 2.0 | 5.0 | 0.00 | 0.00 | 0.00 | 63 | 1027.5 |
| 20260509075728 | 60 | 207 | 3.0 | 6.0 | 0.00 | 0.00 | 0.00 | 63 | 1027.5 |
| 20260509074828 | 60 | 205 | 3.0 | 6.0 | 0.00 | 0.00 | 0.00 | 63 | 1027.6 |
| 20260509073929 | 60 | 217 | 3.0 | 7.0 | 0.00 | 0.00 | 0.00 | 63 | 1027.6 |
| 20260509073028 | 60 | 208 | 3.0 | 5.0 | 0.00 | 0.00 | 0.00 | 63 | 1027.6 |
| 20260509072128 | 61 | 217 | 4.0 | 8.0 | 0.00 | 0.00 | 0.00 | 62 | 1027.5 |
| 20260509071228 | 61 | 238 | 4.0 | 8.0 | 0.00 | 0.00 | 0.00 | 62 | 1027.4 |
| 20260509065428 | 61 | 234 | 4.0 | 8.0 | 0.00 | 0.00 | 0.00 | 62 | 1027.4 |
| 20260509063629 | 62 | 235 | 5.0 | 10.0 | 0.00 | 0.00 | 0.00 | 61 | 1027.4 |
| 20260509062728 | 62 | 230 | 6.0 | 12.0 | 0.00 | 0.00 | 0.00 | 60 | 1027.4 |
| 20260509061827 | 62 | 218 | 4.0 | 11.0 | 0.00 | 0.00 | 0.00 | 60 | 1027.5 |
| 20260509060928 | 62 | 222 | 4.0 | 9.0 | 0.00 | 0.00 | 0.00 | 60 | 1027.3 |
| 20260509060027 | 62 | 216 | 3.0 | 8.0 | 0.00 | 0.00 | 0.00 | 60 | 1027.4 |
| 20260509055127 | 63 | 212 | 5.0 | 9.0 | 0.00 | 0.00 | 0.00 | 59 | 1027.4 |
| 20260509053327 | 64 | 213 | 4.0 | 9.0 | 0.00 | 0.00 | 0.00 | 60 | 1027.5 |
| 20260509052428 | 63 | 241 | 6.0 | 11.0 | 0.00 | 0.00 | 0.00 | 60 | 1027.5 |
| 20260509051527 | 63 | 231 | 6.0 | 12.0 | 0.00 | 0.00 | 0.00 | 60 | 1027.5 |
| 20260509045727 | 62 | 235 | 4.0 | 8.0 | 0.00 | 0.00 | 0.00 | 61 | 1027.6 |
| 20260509044828 | 62 | 221 | 5.0 | 11.0 | 0.00 | 0.00 | 0.00 | 61 | 1027.6 |
| 20260509043928 | 62 | 236 | 5.0 | 11.0 | 0.00 | 0.00 | 0.00 | 61 | 1027.7 |
| 20260509043027 | 62 | 246 | 4.0 | 11.0 | 0.00 | 0.00 | 0.00 | 61 | 1027.7 |
| 20260509042128 | 62 | 250 | 4.0 | 9.0 | 0.00 | 0.00 | 0.00 | 62 | 1027.7 |
| 20260509041227 | 62 | 242 | 5.0 | 9.0 | 0.00 | 0.00 | 0.00 | 63 | 1027.8 |
| 20260509040327 | 62 | 234 | 4.0 | 8.0 | 0.00 | 0.00 | 0.00 | 62 | 1027.8 |
| 20260509034528 | 62 | 224 | 4.0 | 7.0 | 0.00 | 0.00 | 0.00 | 63 | 1027.9 |
| 20260509033628 | 61 | 228 | 5.0 | 9.0 | 0.00 | 0.00 | 0.00 | 63 | 1027.9 |